Regional Weather Roundup
Issued by NWS

Home | Current Version | Previous Version | Text Only | Print | Product List | Glossary On
Versions: 1 2 3 4 5 6 7 8 9 10 11 12 13 14 15 16 17 18 19 20 21 22 23 24 25 26 27 28 29 30 31 32 33 34 35 36 37 38 39 40 41 42 43 44 45 46 47 48 49 50
000
ASUS46 KSEW 272210
RWRWA

WASHINGTON REGIONAL WEATHER ROUNDUP
NATIONAL WEATHER SERVICE SEATTLE WA
200 PM PST THU NOV 27 2014

NOTE:"FAIR" INDICATES FEW OR NO CLOUDS BELOW 12,000 FEET WITH NO
SIGNIFICANT WEATHER AND/OR OBSTRUCTIONS TO VISIBILITY.

WAZ505-507>509-272300-
SEATTLE, TACOMA, EVERETT, AND VICINITY

CITY           SKY/WX    TMP DP  RH WIND       PRES   REMARKS
EVERETT        CLOUDY    55  50  83 S29G37    29.76F
BOEING FIELD   CLOUDY    59  50  72 S13G25    29.80F
RENTON         CLOUDY    58  51  78 S14G20    29.80S
SEATAC AIRPORT PTSUNNY   56  51  84 S17G32    29.80F
JBLM-MCCHORD   LGT RAIN  55  54  94 S16       29.82S
PUYALLUP       NOT AVBL
JBLM-FT LEWIS  LGT RAIN  55  54  96 S13G21    29.82F
TACOMA NARROWS LGT RAIN  54  51  90 S16G25    29.82F
$$

WAZ001-503-506-510-514-515-272300-
NORTH INTERIOR

CITY           SKY/WX    TMP DP  RH WIND       PRES   REMARKS
BELLINGHAM     CLOUDY    57  50  77 SE18G28   29.69F
FRIDAY HARBOR  MOSUNNY   56  50  80 S6        29.71F
EASTSOUND      PTSUNNY   55  52  88 S9        29.68S
PORT ANGELES   LGT RAIN  57  53  86 CALM      29.71F
NAS WHIDBEY    MOSUNNY   60  51  72 S17       29.71F
BURLINGTON     CLOUDY    55  52  88 S16G23    29.74S
$$

WAZ020-022-039-040-504-511-512-272300-
SOUTHWEST INTERIOR

CITY           SKY/WX    TMP DP  RH WIND       PRES   REMARKS
SHELTON        HVY RAIN  56  54  93 SW13      29.78S VSB 3/4
OLYMPIA        LGT RAIN  54  51  90 S15       29.83F
CHEHALIS       CLOUDY    55  54  94 S14G23    29.85S
KELSO          CLOUDY    55  50  82 SE13G24   29.92F
VANCOUVER      CLOUDY    57  48  72 S8        29.93F
SCAPPOOSE, OR  CLOUDY    55  51  86 S7        29.91F
PORTLAND, OR   CLOUDY    57  50  77 S12G22    29.94F
$$

WAZ021-516-517-272300-
WASHINGTON COAST

CITY           SKY/WX    TMP DP  RH WIND       PRES   REMARKS
FORKS          CLOUDY    55  55 100 SW9G23    29.74S FOG
HOQUIAM        LGT RAIN  56  55  97 S18G30    29.81F FOG
ASTORIA, OR    LGT RAIN  56  53  90 S18G26    29.85F
$$

WAZ019-023-024-040-518-519-272300-
CASCADE MOUNTAINS AND COLUMBIA GORGE

CITY           SKY/WX    TMP DP  RH WIND       PRES   REMARKS
STAMPEDE PASS  NOT AVBL
TROUTDALE, OR  CLOUDY    58  50  75 SW8       29.93F
THE DALLES, OR CLOUDY    58  47  66 NW3       29.87F
$$

WAZ026-027-041>044-520-521-272300-
EAST SLOPES

CITY           SKY/WX    TMP DP  RH WIND       PRES   REMARKS
OMAK           SUNNY     45  38  76 SE7       29.73F
WENATCHEE      CLOUDY    47  40  76 W3        29.75F
ELLENSBURG     MOSUNNY   52  43  71 W3        29.78F
YAKIMA         SUNNY     62  44  51 S24G30    29.78F
$$

WAZ028-034-035-272300-
COLUMBIA BASIN

CITY           SKY/WX    TMP DP  RH WIND       PRES   REMARKS
EPHRATA        SUNNY     61  46  57 SW13      29.76F
MOSES LAKE     MOSUNNY   60  45  57 S17       29.78F
PASCO          CLOUDY    65  46  50 SW14      29.85F
HERMISTON, OR  CLOUDY    61  44  53 S6        29.87F
$$

WAZ036>038-272300-
NORTHEAST WASHINGTON

CITY           SKY/WX    TMP DP  RH WIND       PRES   REMARKS
SPOKANE GEIGER PTSUNNY   53  44  71 SW17G25   29.81F
SPOKANE FELTS  CLOUDY    56  43  61 SW18      29.81F
FAIRCHILD AFB  CLOUDY    52  45  76 S12       29.81F
COEURDALENE,ID CLOUDY    54  43  66 SW20      29.81F
DEER PARK      CLOUDY    54  45  71 S15       29.80F
$$

WAZ029>033-272300-
SOUTHEAST WASHINGTON

CITY           SKY/WX    TMP DP  RH WIND       PRES   REMARKS
PULLMAN        CLOUDY    52  43  71 NE3       29.89F
LEWISTON, ID   CLOUDY    53  45  74 VRB5      29.86F
WALLA WALLA    CLOUDY    57  43  59 E8        29.88F
PENDLETON, OR  CLOUDY    62  43  49 SW21G26   29.88F
$$


USA.gov is the U.S. government's official web portal to all federal, state and local government web resources and services.